When you browse on this site, cookies collect data to enhance your experience and personalize the content and advertising you see.
Visit our Privacy Policy to learn more. By continuing to use the site, you agree to this use of cookies and data.
  • In Czech Republic
  • List of Countries
  • For 7 days
  • Water Temperature
  • Satellite Maps
  • Weather Map
  • Weather Widgets
  • user-avatar
    Login

    Hourly Weather Halifax

    Today, 26 April, Friday

    Time Temperature Precipitation Wind Pressure Humidity
    00:00 +1°C° 0 mm 3 mps 758 mmHg 84%
    01:00 0°C° 0 mm 3 mps 759 mmHg 86%
    02:00 0°C° 0 mm 3 mps 759 mmHg 87%
    03:00 -1°C° 0 mm 3 mps 759 mmHg 90%
    04:00 -1°C° 0 mm 2 mps 759 mmHg 93%
    05:00 -2°C° 0 mm 2 mps 759 mmHg 96%
    06:00 +1°C° 0 mm 2 mps 759 mmHg 86%
    07:00 +3°C° 0 mm 2 mps 760 mmHg 77%
    08:00 +4°C° 0 mm 2 mps 760 mmHg 67%
    09:00 +9°C° 0 mm 1 mps 760 mmHg 60%
    10:00 +12°C° 0 mm 1 mps 760 mmHg 52%
    11:00 +15°C° 0 mm 1 mps 760 mmHg 45%
    12:00 +14°C° 0 mm 2 mps 759 mmHg 46%
    13:00 +13°C° 0 mm 3 mps 759 mmHg 48%
    14:00 +13°C° 0 mm 3 mps 759 mmHg 49%
    15:00 +11°C° 0 mm 4 mps 759 mmHg 54%
    16:00 +10°C° 0 mm 4 mps 759 mmHg 58%
    17:00 +7°C° 0 mm 4 mps 759 mmHg 63%
    18:00 +6°C° 0 mm 4 mps 759 mmHg 69%
    19:00 +5°C° 0 mm 3 mps 759 mmHg 75%
    20:00 +3°C° 0 mm 3 mps 759 mmHg 81%
    21:00 +3°C° 0.1 mm 3 mps 759 mmHg 82%
    22:00 +3°C° 0.1 mm 4 mps 758 mmHg 84%
    23:00 +3°C° 0.1 mm 4 mps 758 mmHg 85%

    Tomorrow, 27 April, Saturday

    Time Temperature Precipitation Wind Pressure Humidity
    00:00 +2°C° 0.1 mm 5 mps 758 mmHg 87%
    01:00 +2°C° 0.1 mm 5 mps 757 mmHg 88%
    02:00 +2°C° 0.1 mm 6 mps 756 mmHg 89%
    03:00 +3°C° 0.1 mm 6 mps 756 mmHg 89%
    04:00 +3°C° 0.1 mm 7 mps 755 mmHg 90%
    05:00 +3°C° 0.1 mm 7 mps 754 mmHg 90%
    06:00 +4°C° 0.6 mm 8 mps 754 mmHg 91%
    07:00 +4°C° 0.6 mm 8 mps 754 mmHg 92%
    08:00 +5°C° 0.6 mm 9 mps 753 mmHg 94%
    09:00 +5°C° 1.5 mm 10 mps 753 mmHg 94%
    10:00 +6°C° 1.5 mm 10 mps 752 mmHg 94%
    11:00 +7°C° 1.5 mm 11 mps 752 mmHg 94%
    12:00 +7°C° 0.6 mm 11 mps 751 mmHg 94%
    13:00 +8°C° 0.6 mm 11 mps 750 mmHg 94%
    14:00 +9°C° 0.6 mm 12 mps 749 mmHg 94%
    15:00 +9°C° 2.1 mm 12 mps 749 mmHg 94%
    16:00 +9°C° 2.1 mm 12 mps 748 mmHg 95%
    17:00 +9°C° 2.1 mm 11 mps 748 mmHg 96%
    18:00 +8°C° 0.1 mm 9 mps 748 mmHg 96%
    19:00 +8°C° 0.1 mm 7 mps 748 mmHg 95%
    20:00 +7°C° 0.1 mm 4 mps 749 mmHg 95%
    21:00 +6°C° 0 mm 4 mps 749 mmHg 95%
    22:00 +5°C° 0 mm 4 mps 750 mmHg 96%
    23:00 +4°C° 0 mm 4 mps 750 mmHg 96%

    Day after tomorrow, 28 April, Sunday

    Time Temperature Precipitation Wind Pressure Humidity
    00:00 +4°C° 0 mm 4 mps 750 mmHg 96%
    01:00 +4°C° 0 mm 4 mps 750 mmHg 95%
    02:00 +4°C° 0 mm 4 mps 750 mmHg 95%
    03:00 +4°C° 0 mm 4 mps 750 mmHg 96%
    04:00 +4°C° 0 mm 4 mps 750 mmHg 96%
    05:00 +4°C° 0 mm 4 mps 750 mmHg 97%
    06:00 +5°C° 0 mm 4 mps 751 mmHg 92%
    07:00 +6°C° 0 mm 4 mps 751 mmHg 88%
    08:00 +7°C° 0 mm 4 mps 752 mmHg 83%
    09:00 +8°C° 0 mm 5 mps 752 mmHg 75%
    10:00 +9°C° 0 mm 5 mps 753 mmHg 68%
    11:00 +10°C° 0 mm 6 mps 753 mmHg 60%
    12:00 +11°C° 0 mm 6 mps 753 mmHg 59%
    13:00 +11°C° 0 mm 6 mps 753 mmHg 59%
    14:00 +13°C° 0 mm 6 mps 753 mmHg 58%
    15:00 +13°C° 0 mm 6 mps 754 mmHg 59%
    16:00 +11°C° 0 mm 6 mps 754 mmHg 60%
    17:00 +11°C° 0 mm 6 mps 754 mmHg 61%
    18:00 +9°C° 0 mm 6 mps 755 mmHg 67%
    19:00 +8°C° 0 mm 5 mps 755 mmHg 73%
    20:00 +6°C° 0 mm 5 mps 755 mmHg 78%
    21:00 +5°C° 0 mm 4 mps 755 mmHg 81%
    22:00 +4°C° 0 mm 3 mps 755 mmHg 84%
    23:00 +5°C° 0 mm 2 mps 755 mmHg 86%

    29 April, Monday

    Time Temperature Precipitation Wind Pressure Humidity
    00:00 +6°C° 1 mm 1 mps 755 mmHg 89%
    01:00 +6°C° 1 mm 1 mps 754 mmHg 92%
    02:00 +6°C° 1 mm 1 mps 753 mmHg 95%
    03:00 +5°C° 1.9 mm 2 mps 753 mmHg 95%
    04:00 +4°C° 1.9 mm 3 mps 753 mmHg 95%
    05:00 +3°C° 1.9 mm 5 mps 753 mmHg 95%
    06:00 +2°C° 0.5 mm 6 mps 753 mmHg 92%
    07:00 +2°C° 0.5 mm 7 mps 754 mmHg 89%
    08:00 +1°C° 0.5 mm 8 mps 755 mmHg 86%
    09:00 +2°C° 0 mm 8 mps 756 mmHg 75%
    10:00 +4°C° 0 mm 8 mps 757 mmHg 65%
    11:00 +5°C° 0 mm 8 mps 758 mmHg 55%
    12:00 +6°C° 0 mm 8 mps 758 mmHg 51%
    13:00 +6°C° 0 mm 9 mps 758 mmHg 47%
    14:00 +7°C° 0 mm 9 mps 759 mmHg 42%
    15:00 +7°C° 0 mm 8 mps 759 mmHg 41%
    16:00 +7°C° 0 mm 8 mps 759 mmHg 40%
    17:00 +7°C° 0 mm 8 mps 760 mmHg 39%
    18:00 +5°C° 0 mm 7 mps 760 mmHg 41%
    19:00 +4°C° 0 mm 6 mps 761 mmHg 44%
    20:00 +2°C° 0 mm 6 mps 762 mmHg 46%
    21:00 +2°C° 0 mm 5 mps 762 mmHg 48%
    22:00 +1°C° 0 mm 5 mps 763 mmHg 50%
    23:00 +1°C° 0 mm 5 mps 763 mmHg 52%

    30 April, Tuesday

    Time Temperature Precipitation Wind Pressure Humidity
    00:00 +1°C° 0 mm 5 mps 763 mmHg 53%
    01:00 0°C° 0 mm 5 mps 764 mmHg 54%
    02:00 0°C° 0 mm 5 mps 764 mmHg 55%
    03:00 0°C° 0 mm 5 mps 764 mmHg 58%
    04:00 -1°C° 0 mm 4 mps 764 mmHg 60%
    05:00 -1°C° 0 mm 4 mps 765 mmHg 63%
    06:00 +1°C° 0 mm 5 mps 765 mmHg 56%
    07:00 +2°C° 0 mm 5 mps 765 mmHg 49%
    08:00 +5°C° 0 mm 5 mps 765 mmHg 42%
    09:00 +7°C° 0 mm 5 mps 765 mmHg 40%
    10:00 +8°C° 0 mm 5 mps 764 mmHg 38%
    11:00 +10°C° 0 mm 5 mps 764 mmHg 35%
    12:00 +10°C° 0 mm 5 mps 764 mmHg 35%
    13:00 +12°C° 0 mm 5 mps 764 mmHg 35%
    14:00 +12°C° 0 mm 5 mps 763 mmHg 35%
    15:00 +12°C° 0 mm 5 mps 763 mmHg 39%
    16:00 +10°C° 0 mm 5 mps 763 mmHg 43%
    17:00 +9°C° 0 mm 5 mps 763 mmHg 47%
    18:00 +7°C° 0 mm 4 mps 763 mmHg 55%
    19:00 +5°C° 0 mm 4 mps 763 mmHg 63%
    20:00 +4°C° 0 mm 3 mps 764 mmHg 71%
    21:00 +3°C° 0 mm 4 mps 764 mmHg 74%
    22:00 +3°C° 0 mm 4 mps 764 mmHg 77%
    23:00 +3°C° 0 mm 4 mps 764 mmHg 81%

    1 May, Wednesday

    Time Temperature Precipitation Wind Pressure Humidity
    00:00 +1°C° 0 mm 4 mps 764 mmHg 84%
    01:00 +1°C° 0 mm 4 mps 764 mmHg 88%
    02:00 +1°C° 0 mm 3 mps 764 mmHg 91%
    03:00 +1°C° 0 mm 3 mps 764 mmHg 85%
    04:00 0°C° 0 mm 3 mps 764 mmHg 78%
    05:00 -1°C° 0 mm 3 mps 765 mmHg 71%
    06:00 0°C° 0 mm 4 mps 765 mmHg 60%
    07:00 +3°C° 0 mm 4 mps 766 mmHg 49%
    08:00 +3°C° 0 mm 5 mps 766 mmHg 38%
    09:00 +6°C° 0 mm 5 mps 766 mmHg 35%
    10:00 +7°C° 0 mm 5 mps 766 mmHg 32%
    11:00 +8°C° 0 mm 6 mps 766 mmHg 29%
    12:00 +9°C° 0 mm 6 mps 766 mmHg 29%
    13:00 +9°C° 0 mm 5 mps 765 mmHg 28%
    14:00 +10°C° 0 mm 5 mps 765 mmHg 28%
    15:00 +10°C° 0 mm 5 mps 765 mmHg 29%
    16:00 +10°C° 0 mm 5 mps 765 mmHg 30%
    17:00 +10°C° 0 mm 5 mps 765 mmHg 31%
    18:00 +8°C° 0 mm 4 mps 765 mmHg 38%
    19:00 +7°C° 0 mm 3 mps 765 mmHg 45%
    20:00 +5°C° 0 mm 2 mps 765 mmHg 52%
    21:00 +4°C° 0 mm 2 mps 765 mmHg 52%
    22:00 +4°C° 0 mm 2 mps 765 mmHg 52%
    23:00 +3°C° 0 mm 2 mps 765 mmHg 53%
    Show more